sat.trackr.live / text

‹ back to catalog

STARLINK-5691

NORAD 55478 · 2023-015AF

PAYLOAD ACTIVE UNKNOWN

§ Identity

Operator
Country
US
Launch date
2023-02-02
Launch site
AFETR
Launch vehicle
Mass (kg)
RCS (m²)

Purposes: comms

External: N2YO · Heavens-Above · Gunter

§ Orbital elements

Epoch: 2026-09-20T12:58:45.698880Z

Period
94.27 min
Inclination
43.0036°
Eccentricity
0.0001277
Mean motion
15.27577826 rev/d
Perigee alt
482.2 km
Apogee alt
483.9 km
Semi-major
6,861.2 km
B*
-1.6443e-5
RAAN
297.7089°
Arg perigee
286.1609°
Mean anomaly
73.9103°
Rev number
20,064

§ Raw data

STARLINK-56911 55478U 23015AF  26263.54080670 -.00000715  00000+0 -16443-4 0  99952 55478  43.0036 297.7089 0001277 286.1609  73.9103 15.27577826200643

JSON: /api/v1/satellites/55478 · /tle

For live sub-satellite position, see the globe view (requires WebGL).

§ Visibility from observer

Set your observer location to see the next 7 days of passes ≥ 10°. The values pass through the URL so the page stays shareable.

No JS? Fill the form by hand. The geolocation button needs JavaScript.